[[{"header":{"parameterUnit":"m.s-1","parameterCategory":1,"la1":30.2991,"la2":30.254,"lo1":-89.0895,"lo2":-89.0444,"dy":0.0017,"dx":0.0017,"nx":28,"ny":28,"refTime":"2025-07-22T03:00:00:Z","depth":0,"parameterNumber":2,"parameterNumberName":"U-component_of_WINDS"},"data":[0,0,0,0,0,0,0,0,0,0,0,0,0,0,0,0,0,0,0,0,0,0,0,0,0,0,0,0,0,0,0,0,0,0,0,0,0,0,0,0,0,0,0,0,0,0,0,0,0,0,0,0,0,0,0,0,0,0,2.0491,2.0494,0,2.0812,2.0815,2.0819,2.0976,2.0976,2.0976,2.0976,2.1304,2.1312,2.1321,0,0,0,0,0,0,0,0,0,0,0,0,0,2.0021,2.0028,2.0491,2.0495,2.0499,2.0811,2.0815,2.082,2.0976,2.0976,2.0976,2.0976,2.1301,2.1311,2.1322,0,0,0,0,0,0,0,0,0,0,0,0,0,2.0271,2.0031,2.049,2.0614,2.0629,2.081,2.0816,2.0821,2.0976,2.0976,2.0976,2.0976,2.1298,2.131,2.1323,2.1405,0,0,2.1363,2.1369,0,0,0,0,0,0,0,0,2.0257,2.0288,2.0592,2.0606,2.0623,2.0854,2.077,2.1017,2.0976,2.0844,2.0976,2.0976,2.1154,2.1179,2.1239,2.142,2.1434,2.1364,2.1372,2.1378,2.1382,0,0,0,0,0,0,0,2.0239,2.0275,2.0618,2.0596,2.0615,2.0657,2.0692,2.0817,2.0995,2.0856,2.0868,2.0904,2.1162,2.1226,2.1248,2.1439,2.1364,2.1376,2.1384,2.1389,2.1711,2.1712,0,0,0,0,0,0,2.0201,2.026,2.0608,2.0627,2.0436,2.0665,2.0705,2.078,2.0995,2.1027,2.0904,2.091,2.1204,2.1233,2.126,2.1374,2.1378,2.139,2.1398,2.171,2.1711,2.1712,0,0,0,0,0,0,2.019,2.0231,2.0595,2.0447,2.0497,2.0673,2.0756,2.0786,2.085,2.1031,2.1063,2.0935,2.1205,2.1242,2.137,2.1387,2.1396,2.1408,2.1709,2.171,2.1711,2.1598,0,0,0,0,0,0,2.0176,2.0226,2.0256,2.0447,2.0504,2.0696,2.0757,2.0792,2.0872,2.0884,2.1069,2.11,2.1208,2.1349,2.1382,2.1405,2.1418,2.1709,2.171,2.1711,2.16,2.1595,2.159,0,0,0,0,0,2.0159,2.021,2.0257,2.0298,2.0546,2.0696,2.0729,2.0852,2.0873,2.0907,2.1025,2.1094,2.138,2.1361,2.14,2.1426,2.1708,2.171,2.1711,2.1603,2.1596,2.159,0,0,0,0,0,0,2.0014,2.0236,2.0291,2.0405,2.0531,2.0723,2.0768,2.084,2.0962,2.0967,2.1116,2.1157,2.1272,2.1363,2.1337,2.1521,2.1551,2.1561,2.1456,2.1451,2.1445,2.142,2.1429,0,0,0,0,0,1.9996,2.0099,2.0288,2.037,2.0431,2.0589,2.0659,2.0744,2.088,2.0934,2.1061,2.1191,2.1312,2.1386,2.1507,2.1617,2.1661,2.1655,2.1649,2.1644,2.1649,2.172,2.172,2.1717,2.1717,2.1717,0,0,1.9958,2.0093,2.0148,2.0345,2.0452,2.0558,2.0632,2.0739,2.082,2.095,2.1079,2.1177,2.1333,2.1453,2.1513,2.1533,2.1662,2.1646,2.164,2.1649,2.1721,2.1722,2.1722,2.1718,2.1718,2.1718,0,0,1.9943,2.0054,2.0137,2.0245,2.0409,2.0515,2.0535,2.0719,2.0789,2.0922,2.1024,2.1124,2.1326,2.1435,2.1516,2.1553,2.1623,2.1588,2.1558,2.1625,2.1625,2.1626,2.1641,2.1645,2.1594,2.1594,2.1593,0,1.9875,2.0036,2.017,2.0274,2.036,2.0487,2.0574,2.0673,2.0866,2.0924,2.0945,2.1207,2.132,2.147,2.148,2.1541,2.1571,2.1565,2.1614,2.1617,2.162,2.1636,2.1641,2.1588,2.1589,2.159,2.159,0,1.9947,2.0058,2.0106,2.0292,2.0384,2.0478,2.063,2.0708,2.0788,2.0892,2.1029,2.1172,2.1326,2.1369,2.1445,2.1532,2.154,2.1586,2.1619,2.1612,2.163,2.1637,2.1581,2.1583,2.1584,2.1586,0,0,1.9841,2.0107,2.0122,2.0211,2.0405,2.0495,2.0599,2.0751,2.0816,2.0948,2.104,2.1214,2.126,2.1353,2.1445,2.1504,2.1529,2.1544,2.155,2.1537,2.1637,2.1599,2.1604,2.1579,2.158,2.1582,2.1624,0,1.9853,2.0042,2.017,2.031,2.0417,2.0545,2.0637,2.0767,2.0871,2.0979,2.1095,2.1215,2.1266,2.1324,2.1388,2.1511,2.155,2.1511,2.1667,2.1671,2.1621,2.1613,2.1573,2.1605,2.1632,2.1633,2.1634,0,1.9888,2.002,2.017,2.036,2.041,2.0489,2.0643,2.0744,2.0898,2.097,2.1078,2.1174,2.1294,2.132,2.1488,2.1458,2.1532,2.1603,2.1608,2.1625,2.1649,2.1629,2.1618,2.1622,2.1646,2.1645,2.1644,0,1.9797,2.0012,2.0132,2.0204,2.0427,2.0481,2.0577,2.0731,2.0817,2.0953,2.1011,2.1159,2.1239,2.1353,2.1488,2.1495,2.1644,2.1681,2.1708,2.1705,2.173,2.1726,2.1729,2.1779,2.1779,2.1779,2.1779,0,1.9795,1.9882,2.0095,2.0167,2.0272,2.0422,2.0522,2.0629,2.0767,2.0866,2.0987,2.1078,2.1252,2.1365,2.1473,2.1598,2.1633,2.1696,2.1723,2.1684,2.1676,2.1731,2.1732,2.1781,2.178,2.178,2.178,0,1.9707,1.9852,1.9992,2.0195,2.0248,2.0316,2.0492,2.057,2.0684,2.0808,2.0847,2.1025,2.1166,2.1314,2.1504,2.1577,2.1698,2.1736,2.1645,2.166,2.1679,2.1675,2.1716,2.1731,2.1771,2.177,2.177,0,1.9693,1.9765,1.9977,2.0053,2.0146,2.0266,2.0356,2.051,2.06,2.0786,2.0843,2.0993,2.1121,2.1341,2.1489,2.1637,2.168,2.1685,2.1702,2.1663,2.1681,2.1674,2.1683,2.1676,2.1675,2.1674,2.1673,0,1.9655,1.9727,1.9851,2.0003,2.0108,2.0235,2.0367,2.0423,2.0604,2.0699,2.0846,2.0946,2.1144,2.1293,2.1461,2.1563,2.1649,2.1668,2.1683,2.1641,2.1586,2.1617,2.1627,2.1665,2.1666,2.1666,2.1667,2.1667,1.9605,1.9676,1.9839,1.9976,2.0093,2.0216,2.0301,2.0428,2.0553,2.0726,2.0812,2.0959,2.1121,2.1356,2.1457,2.1577,2.1601,2.1621,2.1626,2.1628,2.1619,2.157,2.1608,2.1608,2.1609,2.1609,2.161,0,1.9573,1.9687,1.9811,1.9994,2.0104,2.018,2.0333,2.0419,2.0547,2.0691,2.0817,2.0989,2.1137,2.13,2.1459,2.1524,2.1568,2.156,2.1556,2.1579,2.1587,2.1559,2.1523,2.1523,2.1523,2.1523,2.1523,2.1523,1.9569,1.9695,1.9786,1.9975,2.0089,2.0234,2.0316,2.0432,2.0548,2.0735,2.0859,2.0966,2.112,2.1292,2.1433,2.1478,2.1531,2.1511,2.1567,2.1571,2.1577,2.1584,2.1558,2.1522,2.1522,2.1549,2.1549,2.1549]},{"header":{"parameterUnit":"m.s-1","parameterCategory":1,"la1":30.2991,"la2":30.254,"lo1":-89.0895,"lo2":-89.0444,"dy":0.0017,"dx":0.0017,"nx":28,"ny":28,"refTime":"2025-07-22T03:00:00:Z","depth":0,"parameterNumber":3,"parameterNumberName":"V-component_of_WINDS"},"data":[0,0,0,0,0,0,0,0,0,0,0,0,0,0,0,0,0,0,0,0,0,0,0,0,0,0,0,0,0,0,0,0,0,0,0,0,0,0,0,0,0,0,0,0,0,0,0,0,0,0,0,0,0,0,0,0,0,0,1.4271,1.427,0,1.416,1.4159,1.4158,1.4066,1.4065,1.4065,1.4064,1.394,1.3938,1.3935,0,0,0,0,0,0,0,0,0,0,0,0,0,1.4395,1.4393,1.4271,1.427,1.4268,1.416,1.4159,1.4157,1.4067,1.4065,1.4064,1.4063,1.3941,1.3938,1.3935,0,0,0,0,0,0,0,0,0,0,0,0,0,1.4318,1.4392,1.4271,1.421,1.4204,1.4161,1.4159,1.4157,1.4067,1.4065,1.4064,1.4063,1.3942,1.3938,1.3935,1.394,0,0,1.3924,1.3922,0,0,0,0,0,0,0,0,1.4322,1.4313,1.422,1.4214,1.4207,1.4126,1.4157,1.4084,1.4067,1.4118,1.4064,1.4062,1.4002,1.3994,1.3976,1.3934,1.3929,1.3923,1.3921,1.392,1.3919,0,0,0,0,0,0,0,1.4328,1.4318,1.4227,1.4219,1.4211,1.4185,1.4173,1.4143,1.4069,1.4114,1.4107,1.4096,1.3998,1.3979,1.3972,1.3927,1.3923,1.392,1.3918,1.3917,1.3882,1.3884,0,0,0,0,0,0,1.4344,1.4323,1.423,1.4223,1.4263,1.4184,1.417,1.4153,1.4069,1.4056,1.4097,1.4092,1.3986,1.3976,1.3967,1.3967,1.392,1.3916,1.3914,1.3881,1.3883,1.3884,0,0,0,0,0,0,1.4347,1.4337,1.4235,1.4271,1.4256,1.4184,1.4165,1.4152,1.4133,1.4057,1.4042,1.4092,1.3985,1.3972,1.3948,1.3961,1.3915,1.3911,1.388,1.3882,1.3883,1.3967,0,0,0,0,0,0,1.4351,1.4338,1.4342,1.4272,1.4255,1.422,1.4166,1.415,1.4128,1.412,1.4048,1.4035,1.3983,1.3954,1.3944,1.3955,1.3908,1.3878,1.388,1.3883,1.3962,1.3971,1.3979,0,0,0,0,0,1.4356,1.4368,1.4342,1.4332,1.4258,1.4221,1.4211,1.4154,1.413,1.4131,1.4082,1.4037,1.3962,1.3952,1.3941,1.3951,1.3877,1.388,1.3883,1.3959,1.3969,1.3978,0,0,0,0,0,0,1.4437,1.4357,1.4328,1.4319,1.4278,1.4206,1.4206,1.4168,1.413,1.4124,1.4052,1.4036,1.4019,1.3982,1.3973,1.395,1.3913,1.3914,1.3975,1.3985,1.3993,1.4001,1.3905,0,0,0,0,0,1.4455,1.4435,1.4365,1.4363,1.4345,1.428,1.4261,1.4221,1.4174,1.4155,1.4105,1.4058,1.4023,1.4002,1.3966,1.3957,1.3938,1.3958,1.3966,1.3973,1.3974,1.3964,1.3971,1.3893,1.3893,1.3893,0,0,1.449,1.4444,1.4435,1.4379,1.4342,1.432,1.4265,1.4244,1.4225,1.4151,1.4125,1.4087,1.4029,1.4012,1.4002,1.3981,1.3992,1.3977,1.3983,1.398,1.3968,1.3975,1.3982,1.3895,1.3895,1.3895,0,0,1.4542,1.4506,1.45,1.4466,1.4412,1.4369,1.4368,1.4302,1.4274,1.4248,1.4191,1.4167,1.411,1.4071,1.4044,1.4082,1.4038,1.4072,1.4114,1.4105,1.4111,1.4116,1.4127,1.4132,1.4073,1.4073,1.4074,0,1.4591,1.4558,1.4501,1.4484,1.446,1.4395,1.4387,1.4354,1.4291,1.4274,1.4253,1.418,1.4137,1.4109,1.4118,1.4099,1.4092,1.4079,1.4115,1.412,1.4123,1.4133,1.4138,1.4078,1.4077,1.4077,1.4076,0,1.462,1.4598,1.4599,1.4543,1.4519,1.4506,1.4445,1.4426,1.4389,1.4347,1.4319,1.4266,1.4218,1.4208,1.417,1.4174,1.4163,1.413,1.409,1.4136,1.4144,1.4147,1.4084,1.4082,1.4081,1.408,0,0,1.4718,1.4633,1.4634,1.4607,1.4544,1.4524,1.4507,1.4463,1.4448,1.4406,1.4388,1.4342,1.4311,1.428,1.4236,1.4229,1.426,1.4196,1.4193,1.4208,1.4258,1.4282,1.4288,1.4232,1.4232,1.4232,1.4262,0,1.4758,1.4728,1.4677,1.4661,1.4639,1.4577,1.4562,1.452,1.448,1.4453,1.4407,1.4375,1.4338,1.4318,1.4309,1.4259,1.4268,1.4256,1.421,1.4209,1.4225,1.4292,1.4317,1.4348,1.4265,1.4266,1.4266,0,1.48,1.4766,1.475,1.4688,1.4676,1.4664,1.4619,1.4595,1.4545,1.4516,1.4483,1.4436,1.4411,1.4378,1.4341,1.4334,1.4311,1.4284,1.4284,1.4275,1.4239,1.4283,1.4357,1.4361,1.427,1.427,1.427,0,1.4871,1.482,1.4804,1.4783,1.4711,1.4703,1.4672,1.4621,1.4598,1.4558,1.4541,1.4498,1.4473,1.4439,1.438,1.4361,1.4348,1.431,1.432,1.4322,1.4318,1.4319,1.4388,1.4309,1.4309,1.4309,1.4308,0,1.492,1.4912,1.4835,1.4824,1.4812,1.4753,1.4741,1.4704,1.4659,1.4637,1.4581,1.4561,1.4486,1.4457,1.441,1.4385,1.4375,1.4348,1.4335,1.4352,1.4355,1.4335,1.433,1.431,1.4309,1.4309,1.4309,0,1.4996,1.4945,1.4922,1.4857,1.484,1.4834,1.4776,1.4762,1.472,1.4693,1.4683,1.4616,1.4578,1.4517,1.446,1.4429,1.4411,1.4392,1.443,1.4421,1.4434,1.4433,1.449,1.4493,1.4416,1.4416,1.4417,0,1.5029,1.5022,1.4957,1.4941,1.4913,1.4886,1.4863,1.4803,1.4781,1.4724,1.4715,1.4674,1.4638,1.458,1.4523,1.4479,1.4456,1.4479,1.4448,1.4465,1.4453,1.4453,1.4451,1.4485,1.4486,1.4487,1.4488,0,1.5093,1.5069,1.5039,1.5001,1.4976,1.4942,1.4905,1.4894,1.4825,1.4802,1.4765,1.4737,1.4681,1.4639,1.4588,1.4551,1.4507,1.4499,1.4498,1.4514,1.4535,1.4522,1.4446,1.4497,1.4496,1.4495,1.4495,1.4494,1.5147,1.5137,1.509,1.5059,1.5026,1.4993,1.4976,1.4934,1.4903,1.4855,1.4821,1.4785,1.4733,1.4659,1.4625,1.4594,1.4574,1.4574,1.4574,1.4574,1.458,1.4543,1.4584,1.4584,1.4584,1.4583,1.4583,0,1.5206,1.5173,1.5146,1.5097,1.5072,1.5038,1.4995,1.4975,1.4946,1.4903,1.487,1.4826,1.4785,1.4727,1.468,1.4666,1.4645,1.4656,1.4655,1.4647,1.4601,1.4605,1.4674,1.4674,1.4674,1.4674,1.4674,1.4674,1.5233,1.5215,1.5185,1.5148,1.5114,1.5082,1.5061,1.5028,1.4994,1.4949,1.4917,1.488,1.4829,1.478,1.474,1.4723,1.4707,1.4724,1.4701,1.4659,1.465,1.4642,1.4645,1.4722,1.4722,1.4749,1.4749,1.475]}]]